DateTimeUTC,F1_A11,F1_S11,BsB_S11,BsG_S11,BsR_S11,BbsB_S11,BbsG_S11,BbsR_S11,BaB_A11,BaG_A11,BaR_A11,Tu_S11,T_S11,Uu_S11,U_S11,P_S11,T1_A11
2021-08-04T11:00:00Z,00000200,20000000,,,,,,,0000.12,0000.56,0000.38,17.3,24.0,11.8,07.8,0670.5,30.8
2021-08-04T11:01:00Z,00000200,20000000,,,,,,,-000.18,-000.49,-000.13,17.3,24.0,11.8,07.8,0670.5,30.9
2021-08-04T11:02:00Z,00000200,20000000,,,,,,,-000.21,-000.14,-000.03,17.3,24.0,11.8,07.8,0670.5,30.9
2021-08-04T11:03:00Z,00000200,60000000,,,,,,,0000.65,0000.71,0000.58,17.3,24.0,11.8,07.8,0670.5,30.9
2021-08-04T11:04:00Z,00000200,40000000,0001.20,0001.21,0000.57,0000.08,0000.11,0000.53,0000.43,0000.58,0000.51,17.6,23.9,11.5,07.8,0671.4,30.9
2021-08-04T11:05:00Z,00000200,00000000,0002.17,0001.14,0001.07,0000.07,0000.25,0000.37,0001.40,0000.86,0000.48,17.6,23.9,11.9,08.1,0671.5,30.9
2021-08-04T11:06:00Z,00000200,00000000,0001.10,0001.13,0000.50,-000.26,0000.19,0000.19,0000.58,0000.76,0001.26,17.6,23.9,12.2,08.3,0671.6,30.9
2021-08-04T11:07:00Z,00000200,00000000,0001.36,0001.26,0000.76,0000.62,0000.25,-000.06,0000.61,0001.08,0000.66,17.7,23.9,12.5,08.5,0671.6,30.8
2021-08-04T11:08:00Z,00000200,00000000,0001.72,0000.96,0000.51,0000.06,0000.10,0000.52,0000.37,0000.08,0000.27,17.7,23.9,12.5,08.6,0671.6,30.9
2021-08-04T11:09:00Z,00000200,00000000,0001.28,0001.21,0000.36,-000.01,0000.14,0000.31,0000.59,0000.27,-000.01,17.7,23.9,12.5,08.6,0671.6,30.9
2021-08-04T11:10:00Z,00000200,00000000,0001.08,0000.92,0000.58,0000.29,0000.12,0000.35,0000.29,0000.45,0000.64,17.7,23.8,12.6,08.6,0671.6,30.9
2021-08-04T11:11:00Z,00000200,00000000,0001.44,0001.41,0000.56,0000.28,0000.25,0000.10,0000.70,0000.41,0000.27,17.7,23.8,12.6,08.6,0671.6,30.9
2021-08-04T11:12:00Z,00000200,00000000,0002.08,0001.28,0000.34,0000.40,0000.13,0000.48,0000.05,0000.07,0000.17,17.7,23.8,12.7,08.7,0671.6,30.9
2021-08-04T11:13:00Z,00000200,00000000,0001.50,0001.49,0000.75,0000.21,0000.31,0000.12,0000.54,0000.77,0000.50,17.7,23.8,12.7,08.7,0671.6,30.9
2021-08-04T11:14:00Z,00000200,00000000,0001.72,0001.08,0000.47,0000.47,0000.17,0000.25,0000.41,0000.57,0000.12,17.7,23.8,12.7,08.7,0671.6,30.9
2021-08-04T11:15:00Z,00000200,00000000,0000.95,0000.88,0000.72,0000.65,0000.17,0000.29,0000.24,0000.03,0000.14,17.7,23.9,12.5,08.6,0671.6,30.9
2021-08-04T11:16:00Z,00000200,00000000,0001.94,0001.08,0000.56,0000.08,0000.18,0000.32,0000.57,0000.42,0000.42,17.7,23.9,12.6,08.6,0671.6,30.9
2021-08-04T11:17:00Z,00000200,00000000,0001.62,0001.15,0000.71,0000.42,0000.29,0000.36,0000.26,0000.19,-000.02,17.7,23.9,12.4,08.5,0671.7,30.9
2021-08-04T11:18:00Z,00000200,00000000,0000.97,0001.02,0000.66,-000.23,0000.14,0000.51,0000.51,0000.63,0000.64,17.7,23.8,12.4,08.5,0671.7,30.9
2021-08-04T11:19:00Z,00000200,00000000,0001.54,0001.17,0000.26,0000.27,0000.11,0000.13,0001.06,0001.12,0000.87,17.7,23.8,12.8,08.8,0671.7,30.9
2021-08-04T11:20:00Z,00000200,00000000,0001.02,0001.26,0000.51,0000.69,-000.08,0000.50,0000.54,0000.70,0000.88,17.7,23.9,12.9,08.9,0671.7,30.9
2021-08-04T11:21:00Z,00000200,00000000,0002.31,0000.69,0000.66,0000.23,0000.30,0000.40,0001.25,0000.88,0000.76,17.7,23.9,13.4,09.2,0671.7,30.9
2021-08-04T11:22:00Z,00000200,00000000,0001.65,0001.38,0000.58,0000.22,0000.18,0000.50,0000.50,0000.68,0000.78,17.8,23.9,13.7,09.4,0671.7,30.9
2021-08-04T11:23:00Z,00000200,00000000,0001.21,0001.38,0000.52,0000.21,0000.42,0000.08,0001.10,0001.01,0000.98,17.8,23.9,14.0,09.6,0671.7,30.9
2021-08-04T11:24:00Z,00000200,00000000,0000.99,0001.51,0000.67,0000.77,0000.20,0000.55,0000.70,0000.91,0000.71,17.8,23.9,14.2,09.8,0671.7,30.9
2021-08-04T11:25:00Z,00000200,00000000,0001.60,0001.08,0000.76,-000.03,0000.34,0000.44,0000.33,0000.01,0000.55,17.8,23.9,14.4,09.9,0671.8,30.9
2021-08-04T11:26:00Z,00000200,00000000,0001.60,0001.20,0000.78,-000.13,0000.07,0000.55,-000.06,0000.13,-000.49,17.8,23.9,14.2,09.7,0671.8,30.9
2021-08-04T11:27:00Z,00000200,00000000,0001.78,0001.41,0000.55,-000.22,0000.36,0000.24,0000.10,0000.07,0000.05,17.8,23.9,13.7,09.4,0671.8,30.9
2021-08-04T11:28:00Z,00000200,00000000,0002.23,0000.90,0000.86,0000.14,0000.28,0000.29,0000.30,-000.00,-000.13,17.8,23.9,13.3,09.2,0671.8,30.9
2021-08-04T11:29:00Z,00000200,00000000,0001.98,0001.03,0000.65,0000.09,0000.32,0000.06,0000.32,0000.16,0000.67,17.8,23.9,13.2,09.1,0671.8,30.9
2021-08-04T11:30:00Z,00000200,00000000,0000.80,0000.91,0000.70,-000.17,0000.25,0000.27,0000.72,0000.85,0000.25,17.8,23.9,13.4,09.2,0671.8,30.9
2021-08-04T11:31:00Z,00000200,00000000,0001.51,0000.88,0000.67,-000.06,0000.21,0000.17,0000.44,0000.78,0000.76,17.8,23.9,13.6,09.3,0671.9,30.9
2021-08-04T11:32:00Z,00000200,00000000,0001.50,0001.49,0001.00,-000.27,0000.09,0000.40,0000.91,0000.29,0000.48,17.8,23.9,13.8,09.4,0671.9,30.9
2021-08-04T11:33:00Z,00000200,00000000,0001.49,0000.94,0000.51,-000.00,0000.37,0000.29,0000.67,0000.75,0000.73,17.8,23.9,13.9,09.6,0671.9,30.9
2021-08-04T11:34:00Z,00000200,00000000,0002.31,0000.83,0000.35,0000.64,0000.12,0000.10,0000.63,0000.54,0000.33,17.8,23.9,14.1,09.7,0671.9,30.9
2021-08-04T11:35:00Z,00000200,00000000,0001.08,0001.10,0000.57,0000.02,0000.38,0000.14,0000.50,0001.01,0000.88,17.8,23.9,14.4,09.9,0671.9,30.9
2021-08-04T11:36:00Z,00000200,00000000,0001.67,0001.22,0000.51,-000.32,0000.33,0000.17,0000.85,0000.72,0000.82,17.8,23.9,14.5,10.0,0671.9,30.9
2021-08-04T11:37:00Z,00000200,00000000,0001.19,0001.19,0000.61,0000.03,0000.07,0000.50,0000.56,0000.34,0000.30,17.8,23.9,14.7,10.1,0671.9,30.9
2021-08-04T11:38:00Z,00000200,00000000,0002.06,0001.33,0000.77,0000.03,0000.25,0000.35,0000.36,-000.01,0000.36,17.8,23.9,14.7,10.1,0672.0,30.9
2021-08-04T11:39:00Z,00000200,00000000,0001.39,0001.24,0000.89,0000.55,0000.38,0000.42,-000.03,0000.77,0000.06,17.8,23.9,14.5,09.9,0672.0,30.9
2021-08-04T11:40:00Z,00000200,00000000,0001.04,0001.24,0000.41,-000.20,0000.20,0000.05,0000.37,0000.07,0000.25,17.8,23.9,14.3,09.8,0672.0,30.9
2021-08-04T11:41:00Z,00000200,00000000,0001.94,0001.36,0000.65,0000.05,0000.08,0000.07,0000.48,0000.29,-000.09,17.8,23.9,14.2,09.7,0672.0,30.9
2021-08-04T11:42:00Z,00000200,00000000,0000.84,0001.08,0000.61,0000.42,0000.20,0000.61,0000.40,-000.19,0000.19,17.8,23.9,13.9,09.6,0672.0,30.9
2021-08-04T11:43:00Z,00000200,00000000,0001.61,0001.12,0000.72,0000.03,0000.07,0000.38,0000.11,0000.85,0000.45,17.8,23.9,13.9,09.5,0672.0,30.9
2021-08-04T11:44:00Z,00000200,00000000,0001.39,0001.11,0000.58,0000.55,0000.02,0000.59,0000.37,0000.18,0000.31,17.9,23.9,13.8,09.5,0672.0,30.9
2021-08-04T11:45:00Z,00000200,00000000,0001.88,0001.12,0000.61,0000.11,0000.41,0000.41,0000.52,0000.77,0000.68,17.9,23.9,13.8,09.5,0672.0,30.9
2021-08-04T11:46:00Z,00000200,00000000,0002.00,0001.41,0000.87,0000.68,0000.28,0000.23,0000.54,0000.15,0000.01,17.9,23.9,13.7,09.5,0672.0,30.9
2021-08-04T11:47:00Z,00000200,00000000,0001.71,0001.20,0000.86,0000.02,0000.43,0000.14,0000.30,0000.16,0000.51,17.8,23.9,13.7,09.4,0672.0,30.8
2021-08-04T11:48:00Z,00000200,00000000,0001.14,0001.03,0000.53,0000.20,0000.36,0000.29,0000.80,0000.90,0000.41,17.8,23.9,13.7,09.5,0672.0,30.8
2021-08-04T11:49:00Z,00000200,00000000,0001.09,0001.28,0000.50,0000.98,0000.69,0000.39,0000.45,0000.60,0000.64,17.8,23.9,14.0,09.6,0672.0,30.9
2021-08-04T11:50:00Z,00000200,00000000,0001.12,0001.14,0000.70,0000.34,0000.26,0000.34,0000.37,0000.86,0000.53,17.8,23.9,14.3,09.8,0672.0,30.9
2021-08-04T11:51:00Z,00000200,00000000,0001.82,0001.43,0000.65,-000.03,0000.44,0000.49,0000.75,-000.04,0000.34,17.8,23.9,14.3,09.8,0672.0,30.9
2021-08-04T11:52:00Z,00000200,00000000,0001.54,0001.41,0000.59,0000.23,0000.43,0000.63,0000.41,0000.73,0000.60,17.8,23.9,14.4,09.9,0672.0,30.9
2021-08-04T11:53:00Z,00000200,00000000,0002.08,0001.50,0000.60,0000.47,0000.19,0000.37,0001.10,0000.70,0000.55,17.8,23.9,14.4,09.9,0672.0,30.8
2021-08-04T11:54:00Z,00000200,00000000,0001.99,0001.19,0000.73,0000.45,0000.49,0000.61,0000.21,0000.41,0000.36,17.8,23.8,14.7,10.1,0672.0,30.7
2021-08-04T11:55:00Z,00000200,00000000,0001.73,0001.48,0001.05,0000.12,0000.11,0000.30,0000.81,0001.04,0000.63,17.6,23.8,15.1,10.3,0672.0,30.6
2021-08-04T11:56:00Z,00000200,00000000,0001.85,0001.01,0000.43,0000.58,0000.38,0000.09,0001.07,0000.25,0000.40,17.4,23.6,15.5,10.5,0672.0,30.5
2021-08-04T11:57:00Z,00000200,40000000,,,,,,,-000.89,-000.43,-000.31,17.3,23.6,16.1,10.9,0672.0,30.5
2021-08-04T11:58:00Z,00000200,60000000,,,,,,,0000.65,0000.79,0000.97,16.8,23.6,15.4,10.1,0671.0,30.5
2021-08-04T11:59:00Z,00000200,20000000,,,,,,,0000.02,-000.33,-000.12,16.8,23.7,15.5,10.1,0671.0,30.5
